Terminal Aerodrome Forecast
Issued by NWS

Home | Current Version | Previous Version | Text Only | Print | Product List | Glossary On
Versions: 1 2 3 4 5 6 7 8 9 10 11 12 13 14 15 16 17 18 19 20 21 22 23 24 25 26 27 28 29 30 31 32 33 34 35 36 37 38 39 40 41 42 43 44 45 46 47 48 49 50
000
FTUS45 KVEF 211800 AAA
TAFLAS
TAF AMD
KLAS 211813Z 2118/2218 11007KT P6SM FEW110 FEW150
     FM212000 16010KT P6SM VCTS SCT100CB
      TEMPO 2121/2124 VRB15G25KT -TSRA BKN090CB
     FM220300 18010KT P6SM SCT110=

USA.gov is the U.S. government's official web portal to all federal, state and local government web resources and services.